Location: Kellogg
(38.0159°N, 90.0546°W)
Time: 15:40:41
(UTC+00:00)

Courier 1B - Pass Details

Date: 15 September 2024
Orbit: 962 x 1208 km, 28.3° (Epoch: 07 October)

Event Time Altitude Azimuth Distance (km) Brightness Sun altitude
Rises 18:24:13 0° 213° (SSW) 3,782 11.1 54.0°
Reaches altitude 10° 18:27:49 10° 195° (SSW) 2,879 10.8 53.8°
Maximum altitude 18:32:21 18° 154° (SSE) 2,391 10.3 53.6°
Drops below altitude 10° 18:37:03 10° 114° (ESE) 3,004 10.2 53.3°
Sets 18:40:54 0° 97° (E) 4,011 10.6 53.1°
